contact:dominique.lefevre@mio.osupytheas.fr, maurice.libes@osupytheas.fr, didier.mallarino@osupytheas.fr
Project:EMSO http://www.emso-fr.org/EMSO-France
Depth: 2436.0 m
Title:EMSO Ligure Ouest : Data MII capteur AQUADOPP
Date,Latitude,Longitude,X_East,Y_North,Z_Up,Amplitude_X,Amplitude_Y,Amplitude_Z,Batterie,SoundSpeed,Heading,Pitch,Roll,Pressure,TIS,Speed,Direction
, degrees North, degrees East, m.s-1, m.s-1,m.s-1, 1, 1, 1, Volt, m.s-1, degree, degree, degree, dbar, degree_C, m.s-1, degree
2023-01-09T00:04:03,42.805,6.029,0.017,-0.005,0.005,99.0,100.0,100.0,13.3,1505.2,335.7,-0.7,1.9,2471.112,13.29,0.017,106.4
2023-01-09T00:07:03,42.805,6.029,-0.014,0.02,0.032,100.0,101.0,101.0,13.3,1505.2,320.5,-0.8,1.8,2471.12,13.29,0.024,325.0
2023-01-09T00:10:03,42.805,6.029,0.0,-0.013,-0.036,98.0,102.0,99.0,13.4,1505.2,338.6,-0.8,1.8,2471.1,13.29,0.013,180.0
2023-01-09T00:13:03,42.805,6.029,0.009,0.018,0.001,101.0,100.0,101.0,13.3,1505.2,317.4,-0.8,1.9,2471.118,13.29,0.02,26.6
2023-01-09T00:16:03,42.805,6.029,0.012,-0.015,-0.009,101.0,100.0,101.0,13.4,1505.2,317.2,-0.8,1.8,2471.098,13.29,0.019,141.3
2023-01-09T00:19:03,42.805,6.029,0.0,-0.004,-0.018,101.0,100.0,99.0,13.3,1505.2,319.8,-0.8,1.8,2471.13,13.29,0.004,180.0
2023-01-09T00:22:03,42.805,6.029,-0.002,-0.023,-0.041,98.0,101.0,101.0,13.4,1505.2,322.5,-0.7,1.8,2471.116,13.29,0.023,185.0
2023-01-09T00:25:03,42.805,6.029,-0.01,-0.002,-0.024,100.0,101.0,101.0,13.4,1505.2,322.5,-0.8,1.8,2471.059,13.29,0.01,258.7
2023-01-09T00:28:03,42.805,6.029,0.007,-0.006,-0.022,101.0,101.0,102.0,13.4,1505.2,324.4,-0.7,1.8,2471.101,13.29,0.009,130.6
2023-01-09T00:31:03,42.805,6.029,-0.069,0.01,-0.091,101.0,101.0,100.0,13.4,1505.2,327.8,-0.8,1.8,2471.114,13.29,0.069,278.2
2023-01-09T00:34:03,42.805,6.029,-0.018,0.005,-0.022,100.0,102.0,100.0,13.3,1505.2,335.4,-0.8,1.8,2471.096,13.29,0.018,285.5
2023-01-09T00:37:03,42.805,6.029,0.017,0.0,-0.027,101.0,99.0,101.0,13.4,1505.2,318.4,-0.8,1.8,2471.08,13.29,0.017,90.0
2023-01-09T00:40:03,42.805,6.029,-0.027,0.01,0.007,100.0,101.0,100.0,13.3,1505.2,324.8,-0.8,1.8,2471.057,13.29,0.028,290.3
2023-01-09T00:43:03,42.805,6.029,0.002,-0.007,-0.028,101.0,100.0,101.0,13.3,1505.2,327.2,-0.8,1.8,2471.071,13.29,0.007,164.1
2023-01-09T00:46:03,42.805,6.029,0.0,-0.005,-0.02,100.0,101.0,100.0,13.4,1505.2,316.5,-0.8,1.8,2471.05,13.29,0.005,180.0
2023-01-09T00:49:03,42.805,6.029,-0.026,0.016,-0.024,100.0,100.0,100.0,13.4,1505.2,333.8,-0.8,1.8,2471.063,13.29,0.03,301.6
2023-01-09T00:52:03,42.805,6.029,0.002,0.0,0.007,100.0,100.0,101.0,13.4,1505.2,329.1,-0.8,1.8,2471.101,13.29,0.002,90.0
2023-01-09T00:55:03,42.805,6.029,-0.007,-0.012,-0.003,101.0,102.0,101.0,13.4,1505.2,332.0,-0.8,1.8,2471.038,13.29,0.013,210.3
2023-01-09T00:58:03,42.805,6.029,-0.021,-0.003,-0.007,100.0,100.0,101.0,13.3,1505.2,324.1,-0.8,1.8,2471.081,13.29,0.021,261.9
2023-01-09T01:04:03,42.805,6.029,0.004,-0.025,-0.024,101.0,100.0,101.0,13.3,1505.2,316.6,-0.8,1.8,2471.108,13.29,0.025,170.9
2023-01-09T01:07:03,42.805,6.029,0.009,-0.001,0.038,100.0,104.0,101.0,13.4,1505.2,327.2,-0.8,1.8,2471.133,13.29,0.009,96.3
2023-01-09T01:10:03,42.805,6.029,-0.026,0.013,0.03,101.0,100.0,100.0,13.4,1505.2,319.4,-0.7,1.8,2471.066,13.29,0.029,296.6
2023-01-09T01:13:03,42.805,6.029,-0.008,-0.007,-0.007,100.0,99.0,101.0,13.4,1505.2,334.6,-0.8,1.8,2471.094,13.29,0.01,228.8
2023-01-09T01:16:03,42.805,6.029,0.007,-0.006,-0.012,101.0,100.0,100.0,13.3,1505.2,336.9,-0.8,1.8,2471.115,13.29,0.009,130.6
2023-01-09T01:19:03,42.805,6.029,0.014,0.005,-0.019,100.0,101.0,101.0,13.3,1505.2,328.2,-0.8,1.8,2471.049,13.29,0.014,70.4
2023-01-09T01:22:03,42.805,6.029,-0.018,0.008,-0.014,101.0,100.0,100.0,13.4,1505.2,333.4,-0.7,1.8,2471.081,13.29,0.019,294.0
2023-01-09T01:25:03,42.805,6.029,-0.017,-0.003,-0.003,100.0,101.0,101.0,13.4,1505.2,331.1,-0.8,1.8,2471.039,13.29,0.017,260.0
2023-01-09T01:28:03,42.805,6.029,-0.019,0.006,-0.041,100.0,100.0,101.0,13.3,1505.2,338.5,-0.8,1.8,2471.043,13.29,0.019,287.5
2023-01-09T01:31:03,42.805,6.029,-0.019,-0.007,-0.025,100.0,101.0,100.0,13.4,1505.2,318.9,-0.7,1.8,2471.107,13.29,0.02,249.8
2023-01-09T01:34:03,42.805,6.029,-0.01,-0.028,-0.071,101.0,100.0,100.0,13.4,1505.2,331.0,-0.8,1.8,2471.072,13.3,0.029,199.6
2023-01-09T01:37:03,42.805,6.029,0.019,0.006,0.002,100.0,101.0,101.0,13.3,1505.2,322.3,-0.7,1.8,2471.077,13.3,0.019,72.5
2023-01-09T01:40:03,42.805,6.029,-0.022,0.001,-0.011,102.0,100.0,101.0,13.4,1505.2,337.8,-0.8,1.9,2471.078,13.3,0.022,272.6
2023-01-09T01:43:03,42.805,6.029,-0.001,-0.001,-0.024,101.0,100.0,101.0,13.4,1505.2,320.9,-0.7,1.8,2471.081,13.3,0.001,225.0
2023-01-09T01:46:03,42.805,6.029,-0.014,0.005,-0.026,101.0,101.0,100.0,13.4,1505.2,333.0,-0.8,1.8,2471.049,13.3,0.014,289.6
2023-01-09T01:49:03,42.805,6.029,-0.013,0.0,-0.017,100.0,101.0,101.0,13.4,1505.2,331.8,-0.7,1.8,2471.055,13.3,0.013,270.0
2023-01-09T01:52:03,42.805,6.029,-0.001,-0.002,-0.011,100.0,100.0,100.0,13.3,1505.2,329.4,-0.8,1.8,2471.074,13.3,0.002,206.6
2023-01-09T01:55:03,42.805,6.029,-0.009,0.014,0.01,99.0,100.0,101.0,13.3,1505.2,335.8,-0.7,1.8,2471.042,13.3,0.016,327.3
2023-01-09T01:58:03,42.805,6.029,-0.004,0.005,0.011,100.0,100.0,100.0,13.4,1505.2,326.5,-0.8,1.8,2471.056,13.3,0.006,321.3
2023-01-09T02:04:03,42.805,6.029,-0.008,-0.006,-0.021,100.0,102.0,100.0,13.3,1505.2,327.9,-0.8,1.8,2471.099,13.29,0.01,233.1
2023-01-09T02:07:03,42.805,6.029,-0.007,0.035,0.03,99.0,102.0,100.0,13.3,1505.2,317.5,-0.7,1.8,2471.073,13.29,0.035,348.7
2023-01-09T02:10:03,42.805,6.029,-0.016,0.004,-0.005,101.0,100.0,101.0,13.4,1505.2,321.0,-0.8,1.8,2471.044,13.3,0.016,284.0
2023-01-09T02:13:03,42.805,6.029,0.001,-0.002,-0.012,101.0,101.0,100.0,13.4,1505.2,322.4,-0.8,1.8,2471.098,13.3,0.002,153.4
2023-01-09T02:16:03,42.805,6.029,-0.015,0.007,-0.009,101.0,101.0,101.0,13.3,1505.2,319.2,-0.8,1.8,2471.016,13.3,0.016,295.0
2023-01-09T02:19:03,42.805,6.029,-0.005,0.002,-0.011,100.0,101.0,100.0,13.4,1505.2,328.7,-0.8,1.8,2471.044,13.3,0.005,291.8
2023-01-09T02:22:03,42.805,6.029,-0.017,0.013,-0.027,100.0,101.0,100.0,13.4,1505.2,331.0,-0.8,1.9,2471.059,13.3,0.021,307.4
2023-01-09T02:25:03,42.805,6.029,0.0,0.012,0.011,99.0,101.0,100.0,13.4,1505.2,327.2,-0.7,1.8,2471.085,13.3,0.012,0.0
2023-01-09T02:28:03,42.805,6.029,-0.024,0.031,0.04,100.0,100.0,100.0,13.4,1505.2,325.8,-0.7,1.8,2471.022,13.3,0.039,322.3
2023-01-09T02:31:03,42.805,6.029,-0.036,0.02,0.017,100.0,100.0,100.0,13.3,1505.2,318.2,-0.8,1.8,2471.025,13.3,0.041,299.1
2023-01-09T02:34:03,42.805,6.029,-0.005,-0.032,-0.06,100.0,100.0,100.0,13.4,1505.2,337.3,-0.8,1.8,2471.048,13.3,0.032,188.9
2023-01-09T02:37:03,42.805,6.029,-0.028,0.02,-0.004,103.0,101.0,101.0,13.4,1505.2,322.9,-0.8,1.8,2471.039,13.3,0.034,305.5
2023-01-09T02:40:03,42.805,6.029,-0.008,0.0,-0.025,100.0,101.0,100.0,13.3,1505.2,323.4,-0.8,1.8,2471.043,13.3,0.008,270.0
2023-01-09T02:43:03,42.805,6.029,-0.009,0.01,-0.017,101.0,100.0,100.0,13.4,1505.2,323.4,-0.8,1.9,2471.066,13.3,0.013,318.0
2023-01-09T02:46:03,42.805,6.029,0.019,0.016,-0.002,104.0,101.0,101.0,13.4,1505.2,316.5,-0.8,1.8,2471.061,13.3,0.024,49.9
2023-01-09T02:49:03,42.805,6.029,-0.003,-0.02,-0.034,100.0,101.0,101.0,13.4,1505.2,322.0,-0.7,1.8,2471.03,13.3,0.02,188.5
2023-01-09T02:52:03,42.805,6.029,-0.008,-0.002,-0.009,100.0,101.0,100.0,13.3,1505.2,323.4,-0.7,1.8,2471.063,13.3,0.008,256.0
2023-01-09T02:55:03,42.805,6.029,0.001,0.011,0.001,100.0,103.0,101.0,13.4,1505.2,319.4,-0.8,1.8,2471.051,13.3,0.011,5.2
2023-01-09T02:58:03,42.805,6.029,-0.03,0.01,0.0,100.0,101.0,101.0,13.4,1505.2,319.5,-0.8,1.8,2471.079,13.3,0.031,288.4
2023-01-09T03:04:03,42.805,6.029,-0.026,0.0,-0.038,100.0,101.0,101.0,13.4,1505.2,326.0,-0.8,1.8,2471.082,13.29,0.026,270.0
2023-01-09T03:07:03,42.805,6.029,0.004,-0.008,-0.039,99.0,102.0,102.0,13.3,1505.2,322.0,-0.8,1.8,2471.105,13.29,0.008,153.4
2023-01-09T03:10:03,42.805,6.029,-0.014,0.015,0.006,100.0,101.0,101.0,13.4,1505.2,322.4,-0.8,1.8,2471.093,13.29,0.02,317.0
2023-01-09T03:13:03,42.805,6.029,-0.006,0.016,0.019,99.0,101.0,101.0,13.4,1505.2,329.8,-0.8,1.8,2471.082,13.29,0.017,339.4
2023-01-09T03:16:03,42.805,6.029,-0.029,0.006,-0.01,100.0,100.0,101.0,13.3,1505.2,329.9,-0.8,1.8,2471.066,13.29,0.029,281.7
2023-01-09T03:19:03,42.805,6.029,-0.014,-0.003,-0.031,100.0,100.0,102.0,13.3,1505.2,325.6,-0.7,1.8,2471.076,13.29,0.014,257.9
2023-01-09T03:22:03,42.805,6.029,-0.009,-0.004,-0.026,98.0,102.0,100.0,13.4,1505.2,328.0,-0.8,1.8,2471.061,13.29,0.009,246.0
2023-01-09T03:25:03,42.805,6.029,-0.029,0.012,0.017,100.0,101.0,101.0,13.3,1505.2,330.7,-0.8,1.8,2471.098,13.29,0.031,292.5
2023-01-09T03:28:03,42.805,6.029,-0.027,0.016,-0.02,101.0,100.0,101.0,13.4,1505.2,329.1,-0.8,1.8,2471.089,13.29,0.031,300.7
2023-01-09T03:31:03,42.805,6.029,-0.033,0.009,-0.028,99.0,101.0,101.0,13.3,1505.2,329.0,-0.8,1.8,2471.071,13.3,0.034,285.3
2023-01-09T03:34:03,42.805,6.029,-0.023,-0.013,-0.035,103.0,101.0,100.0,13.3,1505.2,323.4,-0.8,1.8,2471.051,13.3,0.026,240.5
2023-01-09T03:37:03,42.805,6.029,-0.013,0.013,-0.014,100.0,100.0,101.0,13.4,1505.2,319.4,-0.8,1.8,2471.077,13.3,0.018,315.0
2023-01-09T03:40:03,42.805,6.029,-0.018,-0.019,-0.055,100.0,102.0,100.0,13.4,1505.2,327.8,-0.8,1.8,2471.042,13.3,0.026,223.5
2023-01-09T03:43:03,42.805,6.029,-0.024,0.0,-0.023,100.0,100.0,101.0,13.3,1505.2,319.4,-0.7,1.8,2471.088,13.3,0.024,270.0
2023-01-09T03:46:03,42.805,6.029,-0.004,-0.009,-0.033,100.0,101.0,101.0,13.4,1505.2,332.6,-0.8,1.8,2471.08,13.29,0.009,204.0
2023-01-09T03:49:03,42.805,6.029,-0.011,-0.002,-0.018,101.0,100.0,100.0,13.3,1505.2,328.7,-0.7,1.8,2471.082,13.29,0.011,259.7
2023-01-09T03:52:03,42.805,6.029,-0.026,0.0,-0.005,100.0,101.0,100.0,13.4,1505.2,318.4,-0.8,1.8,2471.079,13.29,0.026,270.0
2023-01-09T03:55:03,42.805,6.029,-0.032,-0.003,-0.064,100.0,101.0,100.0,13.4,1505.2,329.0,-0.8,1.8,2471.052,13.29,0.032,264.6
2023-01-09T03:58:03,42.805,6.029,-0.021,0.004,0.0,100.0,101.0,101.0,13.4,1505.2,317.5,-0.7,1.8,2471.088,13.29,0.021,280.8
2023-01-09T04:04:03,42.805,6.029,-0.018,0.002,-0.003,101.0,100.0,100.0,13.4,1505.2,330.6,-0.8,1.8,2471.084,13.29,0.018,276.3
2023-01-09T04:07:03,42.805,6.029,-0.013,0.004,-0.026,100.0,101.0,101.0,13.4,1505.2,328.3,-0.8,1.8,2471.093,13.29,0.013,287.1
2023-01-09T04:10:03,42.805,6.029,-0.022,-0.005,-0.032,100.0,101.0,100.0,13.3,1505.2,329.0,-0.8,1.8,2471.157,13.29,0.022,257.2
2023-01-09T04:13:03,42.805,6.029,-0.058,0.006,-0.044,98.0,103.0,101.0,13.4,1505.2,320.3,-0.8,1.8,2471.17,13.29,0.058,275.9
2023-01-09T04:16:03,42.805,6.029,-0.021,-0.016,-0.058,101.0,99.0,101.0,13.3,1505.2,318.9,-0.8,1.8,2471.105,13.29,0.026,232.7
2023-01-09T04:19:03,42.805,6.029,-0.022,-0.002,-0.045,99.0,101.0,101.0,13.4,1505.2,326.7,-0.7,1.8,2471.127,13.29,0.022,264.8
2023-01-09T04:22:03,42.805,6.029,-0.016,-0.001,-0.036,99.0,102.0,101.0,13.4,1505.2,335.9,-0.8,1.8,2471.131,13.29,0.016,266.4
2023-01-09T04:25:03,42.805,6.029,0.005,-0.007,-0.005,100.0,101.0,101.0,13.4,1505.2,316.5,-0.8,1.8,2471.075,13.29,0.008,144.5
2023-01-09T04:28:03,42.805,6.029,0.0,0.001,-0.021,101.0,100.0,101.0,13.4,1505.2,333.8,-0.8,1.8,2471.1,13.29,0.001,0.0
2023-01-09T04:31:03,42.805,6.029,-0.007,-0.008,-0.044,101.0,102.0,100.0,13.3,1505.2,324.0,-0.7,1.8,2471.07,13.29,0.01,221.2
2023-01-09T04:34:03,42.805,6.029,-0.028,-0.002,-0.016,102.0,100.0,100.0,13.4,1505.2,326.5,-0.8,1.8,2471.073,13.29,0.028,265.9
2023-01-09T04:37:03,42.805,6.029,-0.024,-0.006,-0.023,101.0,101.0,101.0,13.4,1505.2,318.0,-0.7,1.8,2471.12,13.29,0.024,256.0
2023-01-09T04:40:03,42.805,6.029,-0.011,0.006,0.004,101.0,101.0,100.0,13.4,1505.2,323.1,-0.8,1.8,2471.133,13.29,0.012,298.6
2023-01-09T04:43:03,42.805,6.029,0.014,0.001,0.011,100.0,100.0,101.0,13.4,1505.2,324.7,-0.8,1.8,2471.121,13.3,0.014,85.9
2023-01-09T04:46:03,42.805,6.029,-0.02,-0.032,-0.061,100.0,100.0,101.0,13.3,1505.2,327.0,-0.7,1.8,2471.163,13.3,0.037,212.0
2023-01-09T04:49:03,42.805,6.029,-0.004,-0.009,-0.034,99.0,102.0,100.0,13.3,1505.2,323.7,-0.7,1.8,2471.164,13.3,0.009,204.0
2023-01-09T04:52:03,42.805,6.029,-0.029,0.036,0.049,99.0,100.0,102.0,13.4,1505.2,318.0,-0.8,1.8,2471.075,13.3,0.046,321.1
2023-01-09T04:55:03,42.805,6.029,-0.022,0.013,-0.007,100.0,101.0,101.0,13.4,1505.2,330.1,-0.7,1.8,2471.122,13.3,0.025,300.6
2023-01-09T04:58:03,42.805,6.029,-0.025,0.007,-0.021,101.0,101.0,100.0,13.4,1505.2,322.6,-0.7,1.8,2471.113,13.3,0.025,285.6
2023-01-09T05:04:03,42.805,6.029,-0.008,0.001,-0.016,100.0,101.0,101.0,13.4,1505.2,320.3,-0.8,1.8,2471.17,13.29,0.008,277.1
2023-01-09T05:07:03,42.805,6.029,-0.058,0.012,-0.019,101.0,100.0,100.0,13.4,1505.2,319.4,-0.8,1.8,2471.173,13.29,0.059,281.7
2023-01-09T05:10:03,42.805,6.029,-0.005,0.014,-0.007,100.0,101.0,100.0,13.4,1505.2,336.3,-0.7,1.8,2471.161,13.29,0.014,340.4
2023-01-09T05:13:03,42.805,6.029,-0.038,0.006,-0.019,101.0,100.0,101.0,13.4,1505.2,322.7,-0.8,1.8,2471.154,13.29,0.038,279.0
2023-01-09T05:16:03,42.805,6.029,-0.019,0.01,-0.015,101.0,102.0,101.0,13.4,1505.2,321.3,-0.8,1.9,2471.177,13.29,0.021,297.8
2023-01-09T05:19:03,42.805,6.029,-0.014,0.012,-0.003,101.0,101.0,100.0,13.4,1505.2,325.8,-0.8,1.8,2471.191,13.29,0.018,310.6
2023-01-09T05:22:03,42.805,6.029,-0.001,-0.016,-0.049,101.0,102.0,99.0,13.4,1505.2,317.1,-0.8,1.8,2471.172,13.29,0.016,183.6
2023-01-09T05:25:03,42.805,6.029,-0.015,0.02,0.007,100.0,102.0,101.0,13.3,1505.2,333.4,-0.8,1.8,2471.213,13.29,0.025,323.1
2023-01-09T05:28:03,42.805,6.029,-0.011,0.015,0.022,100.0,100.0,101.0,13.4,1505.2,322.5,-0.8,1.8,2471.151,13.29,0.018,323.7
2023-01-09T05:31:03,42.805,6.029,-0.005,0.005,-0.024,99.0,100.0,100.0,13.4,1505.2,335.4,-0.8,1.8,2471.147,13.29,0.007,315.0
2023-01-09T05:34:03,42.805,6.029,0.003,-0.001,-0.016,101.0,101.0,101.0,13.3,1505.2,316.5,-0.8,1.8,2471.191,13.3,0.003,108.4
2023-01-09T05:37:03,42.805,6.029,-0.015,0.005,-0.041,101.0,101.0,100.0,13.4,1505.2,324.0,-0.7,1.8,2471.142,13.29,0.015,288.4
2023-01-09T05:40:03,42.805,6.029,-0.017,-0.001,-0.026,99.0,102.0,100.0,13.4,1505.2,324.6,-0.7,1.8,2471.213,13.29,0.017,266.6
2023-01-09T05:43:03,42.805,6.029,-0.02,0.005,0.021,100.0,102.0,100.0,13.3,1505.2,334.8,-0.7,1.8,2471.211,13.29,0.02,284.0
2023-01-09T05:46:03,42.805,6.029,0.011,-0.016,-0.042,100.0,102.0,99.0,13.3,1505.2,330.5,-0.8,1.8,2471.203,13.29,0.019,145.5
2023-01-09T05:49:03,42.805,6.029,0.0,-0.014,-0.01,102.0,101.0,100.0,13.3,1505.2,332.4,-0.7,1.8,2471.156,13.29,0.014,180.0
2023-01-09T05:52:03,42.805,6.029,-0.008,-0.013,-0.04,99.0,101.0,101.0,13.3,1505.2,321.9,-0.8,1.8,2471.197,13.29,0.015,211.6
2023-01-09T05:55:03,42.805,6.029,-0.013,-0.013,-0.046,99.0,100.0,101.0,13.3,1505.2,329.7,-0.7,1.8,2471.198,13.29,0.018,225.0
2023-01-09T05:58:03,42.805,6.029,-0.007,0.003,0.0,100.0,101.0,101.0,13.4,1505.2,332.0,-0.8,1.8,2471.209,13.29,0.007,293.2
2023-01-09T06:04:03,42.805,6.029,0.002,0.01,-0.002,100.0,101.0,100.0,13.4,1505.2,322.9,-0.8,1.8,2471.236,13.29,0.01,11.3
2023-01-09T06:07:03,42.805,6.029,-0.002,0.007,-0.018,100.0,101.0,100.0,13.3,1505.2,328.6,-0.8,1.8,2471.233,13.29,0.007,344.1
2023-01-09T06:10:03,42.805,6.029,-0.02,0.017,-0.001,100.0,102.0,100.0,13.3,1505.2,331.7,-0.7,1.8,2471.233,13.29,0.026,310.4
2023-01-09T06:13:03,42.805,6.029,-0.014,0.0,-0.03,101.0,100.0,101.0,13.4,1505.2,331.3,-0.8,1.8,2471.219,13.29,0.014,270.0
2023-01-09T06:16:03,42.805,6.029,0.023,-0.006,0.019,102.0,101.0,99.0,13.3,1505.2,331.7,-0.7,1.8,2471.246,13.29,0.023,104.6
2023-01-09T06:19:03,42.805,6.029,0.018,-0.023,-0.033,100.0,100.0,101.0,13.4,1505.2,338.3,-0.8,1.8,2471.259,13.29,0.029,142.0
2023-01-09T06:22:03,42.805,6.029,-0.022,0.004,-0.036,99.0,102.0,101.0,13.4,1505.2,323.6,-0.8,1.8,2471.248,13.29,0.022,280.3
2023-01-09T06:25:03,42.805,6.029,-0.004,0.004,-0.001,100.0,101.0,100.0,13.3,1505.2,325.1,-0.8,1.8,2471.194,13.29,0.005,315.0
2023-01-09T06:28:03,42.805,6.029,0.017,0.024,0.037,102.0,99.0,100.0,13.4,1505.2,331.5,-0.8,1.8,2471.207,13.29,0.029,35.3
2023-01-09T06:31:03,42.805,6.029,-0.009,0.02,0.014,100.0,100.0,101.0,13.3,1505.2,326.7,-0.8,1.8,2471.214,13.29,0.021,335.8
2023-01-09T06:34:03,42.805,6.029,-0.002,-0.007,-0.042,100.0,100.0,100.0,13.4,1505.2,337.2,-0.8,1.8,2471.231,13.29,0.007,195.9
2023-01-09T06:37:03,42.805,6.029,-0.023,-0.002,-0.052,101.0,100.0,101.0,13.4,1505.2,324.4,-0.8,1.8,2471.242,13.29,0.023,265.0
2023-01-09T06:40:03,42.805,6.029,-0.024,0.003,-0.02,100.0,101.0,101.0,13.4,1505.2,330.5,-0.8,1.9,2471.259,13.29,0.024,277.1
2023-01-09T06:43:03,42.805,6.029,-0.012,0.0,-0.023,99.0,101.0,101.0,13.3,1505.2,318.7,-0.8,1.8,2471.26,13.29,0.012,270.0
2023-01-09T06:46:03,42.805,6.029,-0.004,-0.012,-0.041,101.0,102.0,99.0,13.4,1505.2,323.5,-0.8,1.8,2471.257,13.29,0.012,198.4
2023-01-09T06:49:03,42.805,6.029,-0.01,0.002,-0.037,101.0,101.0,100.0,13.4,1505.2,323.4,-0.8,1.8,2471.262,13.29,0.01,281.3
2023-01-09T06:52:03,42.805,6.029,-0.018,-0.007,-0.017,101.0,100.0,101.0,13.4,1505.2,331.8,-0.8,1.8,2471.243,13.29,0.019,248.8
2023-01-09T06:55:03,42.805,6.029,0.0,0.0,-0.039,101.0,100.0,100.0,13.4,1505.2,318.7,-0.8,1.8,2471.247,13.29,0.0,0.0
2023-01-09T06:58:03,42.805,6.029,0.028,-0.01,0.015,102.0,101.0,100.0,13.3,1505.2,335.8,-0.8,1.8,2471.243,13.29,0.029,109.6
2023-01-09T07:04:03,42.805,6.029,0.004,0.017,-0.008,99.0,102.0,101.0,13.4,1505.2,322.8,-0.8,1.8,2471.302,13.29,0.017,13.2
2023-01-09T07:07:03,42.805,6.029,-0.007,0.035,0.0,101.0,101.0,101.0,13.3,1505.2,329.0,-0.8,1.8,2471.302,13.29,0.035,348.7
2023-01-09T07:10:03,42.805,6.029,0.0,-0.012,-0.003,101.0,102.0,100.0,13.4,1505.2,334.2,-0.8,1.8,2471.28,13.29,0.012,180.0
2023-01-09T07:13:03,42.805,6.029,-0.008,0.033,0.032,101.0,101.0,101.0,13.4,1505.2,317.7,-0.8,1.8,2471.28,13.29,0.033,346.4
2023-01-09T07:16:03,42.805,6.029,-0.003,0.009,-0.012,101.0,100.0,100.0,13.4,1505.2,328.2,-0.7,1.8,2471.299,13.29,0.009,341.6
2023-01-09T07:19:03,42.805,6.029,-0.007,0.012,-0.008,101.0,101.0,100.0,13.3,1505.2,329.0,-0.7,1.8,2471.285,13.29,0.013,329.7
2023-01-09T07:22:03,42.805,6.029,-0.001,0.005,-0.007,101.0,100.0,101.0,13.3,1505.2,318.4,-0.7,1.8,2471.274,13.29,0.005,348.7
2023-01-09T07:25:03,42.805,6.029,-0.005,0.0,-0.043,101.0,101.0,100.0,13.4,1505.2,334.2,-0.8,1.8,2471.269,13.29,0.005,270.0
2023-01-09T07:28:03,42.805,6.029,-0.024,-0.009,-0.049,100.0,101.0,101.0,13.3,1505.2,318.5,-0.7,1.8,2471.325,13.29,0.025,249.4
2023-01-09T07:31:03,42.805,6.029,0.009,0.007,-0.008,100.0,101.0,100.0,13.4,1505.2,322.9,-0.8,1.8,2471.3,13.29,0.011,52.1
2023-01-09T07:34:03,42.805,6.029,0.013,-0.001,-0.001,99.0,102.0,100.0,13.4,1505.2,321.4,-0.7,1.8,2471.306,13.29,0.013,94.4
2023-01-09T07:37:03,42.805,6.029,-0.029,-0.008,-0.059,99.0,100.0,101.0,13.3,1505.2,330.7,-0.8,1.8,2471.279,13.29,0.03,254.6
2023-01-09T07:40:03,42.805,6.029,-0.01,0.015,-0.02,102.0,101.0,101.0,13.4,1505.2,325.2,-0.8,1.8,2471.285,13.29,0.018,326.3
2023-01-09T07:43:03,42.805,6.029,0.024,0.001,-0.004,100.0,101.0,101.0,13.4,1505.2,335.5,-0.8,1.8,2471.278,13.29,0.024,87.6
2023-01-09T07:46:03,42.805,6.029,-0.014,0.007,-0.012,101.0,101.0,100.0,13.4,1505.2,337.2,-0.8,1.8,2471.28,13.29,0.015,296.6
2023-01-09T07:49:03,42.805,6.029,-0.023,0.028,0.007,100.0,101.0,100.0,13.3,1505.2,331.9,-0.7,1.8,2471.292,13.29,0.036,320.6
2023-01-09T07:52:03,42.805,6.029,0.003,0.011,0.008,101.0,101.0,101.0,13.3,1505.2,321.9,-0.7,1.8,2471.283,13.29,0.011,15.3
2023-01-09T07:55:03,42.805,6.029,0.001,-0.003,-0.016,101.0,101.0,101.0,13.4,1505.2,330.6,-0.8,1.8,2471.316,13.29,0.003,161.6
2023-01-09T07:58:03,42.805,6.029,0.012,0.007,0.01,100.0,100.0,100.0,13.4,1505.2,336.5,-0.7,1.8,2471.305,13.29,0.013,59.7
2023-01-09T08:04:03,42.805,6.029,-0.004,0.004,-0.036,100.0,101.0,100.0,13.4,1505.2,329.3,-0.7,1.8,2471.32,13.29,0.005,315.0
2023-01-09T08:07:03,42.805,6.029,-0.022,0.011,0.008,100.0,101.0,100.0,13.4,1505.2,320.8,-0.8,1.8,2471.336,13.29,0.024,296.6
2023-01-09T08:10:03,42.805,6.029,0.025,-0.009,-0.021,100.0,101.0,100.0,13.3,1505.2,321.9,-0.7,1.8,2471.352,13.29,0.026,109.8
2023-01-09T08:13:03,42.805,6.029,-0.015,0.019,-0.016,99.0,100.0,101.0,13.4,1505.2,331.3,-0.8,1.8,2471.297,13.29,0.024,321.7
2023-01-09T08:16:03,42.805,6.029,0.009,0.0,0.019,100.0,100.0,101.0,13.4,1505.2,336.5,-0.7,1.8,2471.334,13.29,0.009,90.0
2023-01-09T08:19:03,42.805,6.029,0.01,0.005,-0.011,100.0,100.0,101.0,13.3,1505.2,323.6,-0.7,1.8,2471.328,13.29,0.011,63.4
2023-01-09T08:22:03,42.805,6.029,0.008,0.006,0.01,102.0,100.0,100.0,13.4,1505.2,336.3,-0.8,1.8,2471.306,13.29,0.01,53.1
2023-01-09T08:25:03,42.805,6.029,0.017,0.003,-0.016,101.0,100.0,100.0,13.4,1505.2,320.8,-0.8,1.8,2471.324,13.29,0.017,80.0
2023-01-09T08:28:03,42.805,6.029,0.013,0.008,0.026,99.0,101.0,101.0,13.4,1505.2,337.3,-0.8,1.8,2471.354,13.29,0.015,58.4
2023-01-09T08:31:03,42.805,6.029,-0.007,-0.022,-0.065,100.0,100.0,100.0,13.4,1505.2,319.5,-0.8,1.8,2471.339,13.29,0.023,197.6
2023-01-09T08:34:03,42.805,6.029,0.018,-0.015,0.003,100.0,100.0,101.0,13.3,1505.2,334.6,-0.8,1.8,2471.327,13.29,0.023,129.8
2023-01-09T08:37:03,42.805,6.029,-0.016,0.011,0.011,99.0,101.0,100.0,13.4,1505.2,325.5,-0.8,1.8,2471.308,13.29,0.019,304.5
2023-01-09T08:40:03,42.805,6.029,0.0,0.035,0.08,100.0,100.0,101.0,13.4,1505.2,324.6,-0.8,1.8,2471.312,13.29,0.035,0.0
2023-01-09T08:43:03,42.805,6.029,-0.006,-0.036,-0.075,102.0,100.0,100.0,13.3,1505.2,338.0,-0.8,1.8,2471.315,13.29,0.036,189.5
2023-01-09T08:46:03,42.805,6.029,0.014,0.001,-0.019,100.0,99.0,101.0,13.4,1505.2,316.0,-0.7,1.8,2471.272,13.29,0.014,85.9
2023-01-09T08:49:03,42.805,6.029,0.004,0.005,0.009,101.0,101.0,100.0,13.4,1505.2,338.2,-0.8,1.8,2471.314,13.29,0.006,38.7
2023-01-09T08:52:03,42.805,6.029,-0.004,0.0,0.001,101.0,101.0,101.0,13.3,1505.2,317.4,-0.8,1.8,2471.327,13.29,0.004,270.0
2023-01-09T08:55:03,42.805,6.029,0.031,-0.003,-0.007,101.0,100.0,101.0,13.4,1505.2,326.3,-0.8,1.8,2471.354,13.29,0.031,95.5
2023-01-09T08:58:03,42.805,6.029,-0.01,0.012,-0.011,101.0,100.0,102.0,13.3,1505.2,330.6,-0.7,1.8,2471.289,13.29,0.015,320.2
2023-01-09T09:04:03,42.805,6.029,0.029,0.002,0.007,99.0,104.0,101.0,13.4,1505.2,331.1,-0.8,1.8,2471.421,13.29,0.029,86.1
2023-01-09T09:07:03,42.805,6.029,0.011,0.014,0.025,102.0,100.0,100.0,13.3,1505.2,315.5,-0.8,1.8,2471.358,13.29,0.017,38.2
2023-01-09T09:10:03,42.805,6.029,0.003,0.01,-0.002,101.0,101.0,101.0,13.4,1505.2,332.1,-0.8,1.8,2471.331,13.29,0.01,16.7
2023-01-09T09:13:03,42.805,6.029,-0.004,-0.021,-0.023,101.0,101.0,100.0,13.4,1505.2,327.1,-0.8,1.8,2471.341,13.29,0.021,190.8
2023-01-09T09:16:03,42.805,6.029,-0.005,0.004,-0.02,101.0,100.0,101.0,13.4,1505.2,323.5,-0.8,1.8,2471.333,13.29,0.006,308.7
2023-01-09T09:19:03,42.805,6.029,-0.013,-0.005,-0.007,100.0,102.0,100.0,13.4,1505.2,336.1,-0.8,1.8,2471.317,13.29,0.013,249.0
2023-01-09T09:22:03,42.805,6.029,-0.018,-0.007,-0.002,99.0,100.0,102.0,13.3,1505.2,319.0,-0.8,1.8,2471.343,13.29,0.019,248.8
2023-01-09T09:25:03,42.805,6.029,0.006,-0.009,-0.013,102.0,99.0,100.0,13.4,1505.2,320.9,-0.8,1.8,2471.347,13.29,0.01,146.3
2023-01-09T09:28:03,42.805,6.029,-0.024,0.021,-0.004,100.0,102.0,100.0,13.3,1505.2,319.0,-0.8,1.8,2471.332,13.29,0.031,311.2
2023-01-09T09:31:03,42.805,6.029,-0.003,-0.022,-0.059,101.0,99.0,102.0,13.3,1505.2,325.6,-0.8,1.8,2471.317,13.29,0.022,187.8
2023-01-09T09:34:03,42.805,6.029,-0.008,0.014,-0.003,100.0,101.0,101.0,13.4,1505.2,323.8,-0.7,1.8,2471.35,13.29,0.016,330.3
2023-01-09T09:37:03,42.805,6.029,0.026,-0.016,-0.015,100.0,101.0,101.0,13.3,1505.2,321.8,-0.7,1.8,2471.322,13.29,0.03,121.6
2023-01-09T09:40:03,42.805,6.029,0.006,-0.01,-0.014,102.0,100.0,101.0,13.4,1505.2,335.7,-0.8,1.8,2471.315,13.29,0.011,149.0
2023-01-09T09:43:03,42.805,6.029,0.036,-0.006,-0.009,101.0,100.0,102.0,13.4,1505.2,318.6,-0.8,1.8,2471.353,13.29,0.036,99.5
2023-01-09T09:46:03,42.805,6.029,-0.012,0.007,-0.024,100.0,101.0,101.0,13.3,1505.2,324.8,-0.8,1.8,2471.321,13.29,0.013,300.3
2023-01-09T09:49:03,42.805,6.029,0.003,-0.01,-0.04,101.0,100.0,100.0,13.4,1505.2,318.4,-0.8,1.8,2471.301,13.29,0.01,163.3
2023-01-09T09:52:03,42.805,6.029,-0.004,-0.01,-0.028,100.0,101.0,101.0,13.4,1505.2,337.3,-0.8,1.8,2471.353,13.29,0.01,201.8
2023-01-09T09:55:03,42.805,6.029,-0.026,0.0,-0.001,100.0,101.0,101.0,13.4,1505.2,328.5,-0.7,1.8,2471.321,13.29,0.026,270.0
2023-01-09T09:58:03,42.805,6.029,-0.008,0.008,0.016,101.0,101.0,101.0,13.4,1505.2,331.8,-0.8,1.8,2471.351,13.29,0.011,315.0